• In Hungary
  • List of Countries
  • For 7 days
  • Water Temperature
  • Satellite Maps
  • Weather Map
  • News
  • Weather Widgets
  • user-avatar
    Login

    Hourly Weather Szklary

    Today, 24 September, Monday

    Time Temperature Precipitation Wind Pressure Humidity
    00:00 +11°C° 0.4 mm 9 mps 735 mmHg 85%
    01:00 +10°C° 0 mm 9 mps 736 mmHg 84%
    02:00 +8°C° 0.2 mm 9 mps 738 mmHg 83%
    03:00 +7°C° 0.2 mm 8 mps 739 mmHg 83%
    04:00 +6°C° 0.2 mm 8 mps 741 mmHg 83%
    05:00 +6°C° 0 mm 8 mps 742 mmHg 81%
    06:00 +6°C° 0 mm 8 mps 743 mmHg 80%
    07:00 +7°C° 0 mm 6 mps 743 mmHg 78%
    08:00 +8°C° 0.1 mm 7 mps 744 mmHg 74%
    09:00 +7°C° 0.1 mm 8 mps 745 mmHg 70%
    10:00 +8°C° 0.1 mm 9 mps 746 mmHg 66%
    11:00 +10°C° 0.1 mm 9 mps 746 mmHg 62%
    12:00 +10°C° 0.1 mm 9 mps 746 mmHg 58%
    13:00 +11°C° 0.1 mm 10 mps 747 mmHg 54%
    14:00 +11°C° 0.1 mm 9 mps 747 mmHg 55%
    15:00 +11°C° 0.1 mm 9 mps 747 mmHg 55%
    16:00 +10°C° 0.1 mm 8 mps 747 mmHg 56%
    17:00 +9°C° 0 mm 7 mps 747 mmHg 60%
    18:00 +8°C° 0 mm 6 mps 748 mmHg 64%
    19:00 +7°C° 0 mm 5 mps 749 mmHg 68%
    20:00 +7°C° 0.1 mm 5 mps 749 mmHg 70%
    21:00 +7°C° 0.1 mm 5 mps 750 mmHg 71%
    22:00 +6°C° 0.1 mm 5 mps 750 mmHg 73%
    23:00 +6°C° 0 mm 5 mps 751 mmHg 74%

    Tomorrow, 25 September, Tuesday

    Time Temperature Precipitation Wind Pressure Humidity
    00:00 +6°C° 0 mm 5 mps 751 mmHg 75%
    01:00 +5°C° 0 mm 5 mps 751 mmHg 77%
    02:00 +5°C° 0 mm 5 mps 752 mmHg 78%
    03:00 +3°C° 0 mm 5 mps 752 mmHg 80%
    04:00 +4°C° 0 mm 4 mps 752 mmHg 81%
    05:00 +4°C° 0 mm 4 mps 753 mmHg 80%
    06:00 +3°C° 0 mm 5 mps 754 mmHg 80%
    07:00 +3°C° 0 mm 5 mps 754 mmHg 79%
    08:00 +6°C° 0 mm 5 mps 755 mmHg 73%
    09:00 +7°C° 0 mm 5 mps 755 mmHg 67%
    10:00 +9°C° 0 mm 5 mps 756 mmHg 62%
    11:00 +10°C° 0.1 mm 5 mps 756 mmHg 58%
    12:00 +10°C° 0.1 mm 5 mps 756 mmHg 55%
    13:00 +12°C° 0.1 mm 5 mps 756 mmHg 51%
    14:00 +12°C° 0.1 mm 5 mps 756 mmHg 51%
    15:00 +12°C° 0.1 mm 4 mps 756 mmHg 51%
    16:00 +12°C° 0.1 mm 4 mps 756 mmHg 51%
    17:00 +10°C° 0 mm 3 mps 757 mmHg 56%
    18:00 +9°C° 0 mm 2 mps 757 mmHg 61%
    19:00 +8°C° 0 mm 1 mps 757 mmHg 65%
    20:00 +8°C° 0 mm 1 mps 758 mmHg 67%
    21:00 +8°C° 0 mm 1 mps 758 mmHg 68%
    22:00 +7°C° 0 mm 1 mps 758 mmHg 69%
    23:00 +7°C° 0 mm 1 mps 758 mmHg 69%

    Day after tomorrow, 26 September, Wednesday

    Time Temperature Precipitation Wind Pressure Humidity
    00:00 +7°C° 0 mm 1 mps 758 mmHg 70%
    01:00 +5°C° 0 mm 2 mps 758 mmHg 70%
    02:00 +5°C° 0 mm 2 mps 758 mmHg 70%
    03:00 +5°C° 0 mm 2 mps 758 mmHg 70%
    04:00 +5°C° 0 mm 2 mps 758 mmHg 70%
    05:00 +5°C° 0 mm 2 mps 758 mmHg 70%
    06:00 +6°C° 0 mm 2 mps 758 mmHg 69%
    07:00 +6°C° 0 mm 2 mps 758 mmHg 68%
    08:00 +8°C° 0 mm 2 mps 758 mmHg 62%
    09:00 +10°C° 0 mm 3 mps 758 mmHg 55%
    10:00 +12°C° 0 mm 4 mps 758 mmHg 49%
    11:00 +13°C° 0 mm 4 mps 757 mmHg 46%
    12:00 +14°C° 0 mm 4 mps 757 mmHg 44%
    13:00 +15°C° 0 mm 4 mps 756 mmHg 42%
    14:00 +15°C° 0 mm 4 mps 755 mmHg 44%
    15:00 +15°C° 0 mm 4 mps 755 mmHg 46%
    16:00 +15°C° 0 mm 4 mps 754 mmHg 48%
    17:00 +13°C° 0 mm 3 mps 754 mmHg 51%
    18:00 +12°C° 0 mm 3 mps 754 mmHg 55%
    19:00 +11°C° 0 mm 3 mps 754 mmHg 58%
    20:00 +10°C° 0 mm 3 mps 754 mmHg 58%
    21:00 +10°C° 0 mm 3 mps 754 mmHg 59%
    22:00 +9°C° 0 mm 3 mps 754 mmHg 59%
    23:00 +9°C° 0 mm 3 mps 754 mmHg 59%

    27 September, Thursday

    Time Temperature Precipitation Wind Pressure Humidity
    00:00 +9°C° 0 mm 3 mps 754 mmHg 59%
    01:00 +9°C° 0 mm 3 mps 754 mmHg 59%
    02:00 +9°C° 0 mm 3 mps 753 mmHg 60%
    03:00 +9°C° 0 mm 3 mps 753 mmHg 60%
    04:00 +9°C° 0 mm 3 mps 753 mmHg 60%
    05:00 +9°C° 0 mm 3 mps 753 mmHg 59%
    06:00 +10°C° 0 mm 3 mps 753 mmHg 58%
    07:00 +11°C° 0 mm 3 mps 753 mmHg 57%
    08:00 +13°C° 0 mm 3 mps 753 mmHg 54%
    09:00 +16°C° 0 mm 3 mps 753 mmHg 50%
    10:00 +18°C° 0 mm 3 mps 753 mmHg 46%
    11:00 +19°C° 0 mm 3 mps 752 mmHg 46%
    12:00 +20°C° 0 mm 4 mps 752 mmHg 46%
    13:00 +22°C° 0 mm 4 mps 752 mmHg 47%
    14:00 +21°C° 0 mm 3 mps 751 mmHg 49%
    15:00 +21°C° 0 mm 3 mps 751 mmHg 51%
    16:00 +21°C° 0 mm 3 mps 750 mmHg 53%
    17:00 +19°C° 0 mm 2 mps 750 mmHg 57%
    18:00 +17°C° 0 mm 2 mps 750 mmHg 61%
    19:00 +16°C° 0 mm 2 mps 750 mmHg 65%
    20:00 +15°C° 0 mm 2 mps 750 mmHg 65%
    21:00 +15°C° 0 mm 2 mps 750 mmHg 64%
    22:00 +14°C° 0 mm 2 mps 749 mmHg 63%
    23:00 +14°C° 0 mm 2 mps 749 mmHg 63%

    28 September, Friday

    Time Temperature Precipitation Wind Pressure Humidity
    00:00 +14°C° 0 mm 2 mps 749 mmHg 63%
    01:00 +14°C° 0 mm 2 mps 748 mmHg 63%
    02:00 +13°C° 0 mm 2 mps 748 mmHg 64%
    03:00 +13°C° 0 mm 2 mps 747 mmHg 65%
    04:00 +12°C° 0 mm 2 mps 747 mmHg 66%
    05:00 +12°C° 0 mm 2 mps 747 mmHg 65%
    06:00 +13°C° 0 mm 2 mps 747 mmHg 65%
    07:00 +13°C° 0 mm 2 mps 747 mmHg 64%
    08:00 +15°C° 0 mm 2 mps 747 mmHg 58%
    09:00 +17°C° 0 mm 2 mps 747 mmHg 52%
    10:00 +19°C° 0 mm 2 mps 747 mmHg 45%
    11:00 +20°C° 0 mm 2 mps 746 mmHg 44%
    12:00 +21°C° 0 mm 2 mps 746 mmHg 42%
    13:00 +23°C° 0 mm 2 mps 746 mmHg 40%
    14:00 +21°C° 0 mm 2 mps 745 mmHg 44%
    15:00 +21°C° 0 mm 2 mps 745 mmHg 47%
    16:00 +21°C° 0 mm 2 mps 745 mmHg 50%
    17:00 +19°C° 0 mm 2 mps 745 mmHg 57%
    18:00 +17°C° 0 mm 2 mps 745 mmHg 65%
    19:00 +15°C° 0 mm 1 mps 745 mmHg 72%
    20:00 +14°C° 0 mm 2 mps 745 mmHg 76%
    21:00 +14°C° 0 mm 2 mps 745 mmHg 79%
    22:00 +13°C° 0 mm 2 mps 745 mmHg 83%
    23:00 +13°C° 0.3 mm 2 mps 746 mmHg 85%

    29 September, Saturday

    Time Temperature Precipitation Wind Pressure Humidity
    00:00 +13°C° 0.3 mm 2 mps 746 mmHg 87%
    01:00 +12°C° 0.3 mm 2 mps 746 mmHg 89%
    02:00 +12°C° 0.3 mm 2 mps 746 mmHg 90%
    03:00 +12°C° 0.3 mm 2 mps 746 mmHg 91%
    04:00 +12°C° 0.3 mm 2 mps 746 mmHg 92%
    05:00 +10°C° 0 mm 3 mps 747 mmHg 91%
    06:00 +10°C° 0 mm 3 mps 747 mmHg 91%
    07:00 +10°C° 0 mm 3 mps 748 mmHg 91%
    08:00 +10°C° 0 mm 3 mps 748 mmHg 85%
    09:00 +11°C° 0 mm 3 mps 748 mmHg 79%
    10:00 +12°C° 0 mm 3 mps 749 mmHg 74%
    11:00 +12°C° 0 mm 3 mps 749 mmHg 69%
    12:00 +13°C° 0 mm 3 mps 749 mmHg 64%
    13:00 +13°C° 0 mm 3 mps 749 mmHg 59%
    14:00 +13°C° 0 mm 3 mps 749 mmHg 57%
    15:00 +13°C° 0 mm 3 mps 749 mmHg 56%
    16:00 +13°C° 0 mm 3 mps 749 mmHg 55%
    17:00 +12°C° 0 mm 3 mps 749 mmHg 59%
    18:00 +10°C° 0 mm 2 mps 750 mmHg 64%
    19:00 +9°C° 0 mm 2 mps 750 mmHg 68%
    20:00 +8°C° 0 mm 2 mps 750 mmHg 69%
    21:00 +8°C° 0 mm 2 mps 750 mmHg 71%
    22:00 +7°C° 0 mm 2 mps 750 mmHg 72%
    23:00 +7°C° 0 mm 2 mps 750 mmHg 72%
    Show more